Location: Natural Bridges National Monument
(37.6093°N, 109.9767°W)
Time: 09:31:08
(UTC-06:00)

Amateur Radio Satellites - All Passes

Search period start: 31 March 2015 09:01
Search period end: 01 April 2015 09:01
Location: Natural Bridges National Monument, 37.6093°N, 109.9767°W

Satellite Date Start Highest point End Downlink Frequencies (MHz)
Time Altitude Azimuth
GOMX 1 31 Mar 09:07:48 09:10:55 20° 94° (E) 09:14:18 467.674
PHONESAT 2.4 31 Mar 09:27:47 09:31:17 60° 9° (N) 09:34:48 2401.200-2431.200
CANX-2 31 Mar 09:37:26 09:41:27 37° 97° (E) 09:45:28 2200.000
DANDE 31 Mar 09:46:46 09:50:15 21° 264° (W) 09:54:19 436.750
BEESAT 2 31 Mar 09:47:57 09:51:23 27° 113° (ESE) 09:54:56 435.950
CINEMA 3 31 Mar 09:48:39 09:51:50 19° 93° (E) 09:55:17 145.822/145.860
CUTE 1.7 + AOD 2 31 Mar 09:50:55 09:55:07 49° 99° (E) 09:59:18 437.475
HO-68 31 Mar 09:59:53 10:07:02 64° 102° (ESE) 10:14:09 435.675
AAUSAT CUBESAT 2 31 Mar 10:07:30 10:11:34 44° 98° (E) 10:15:36 437.432
VERMONT LUNAR 31 Mar 10:08:09 10:11:24 49° 204° (SSW) 10:14:39 437.305
BRITE-PL 31 Mar 10:08:58 10:13:07 52° 285° (WNW) 10:17:27 437.365/2234.400
SEEDS 31 Mar 10:16:59 10:21:17 84° 102° (ESE) 10:25:34 437.485
POLYITAN 1 31 Mar 10:19:08 10:19:21 10° 65° (ENE) 10:19:49 437.675
BEESAT 3 31 Mar 10:21:48 10:25:52 81° 120° (ESE) 10:30:01 437.485
DOVE 4 31 Mar 10:23:31 10:27:55 87° 288° (WNW) 10:32:35 437.250
DX 1 31 Mar 10:34:18 10:36:33 14° 91° (E) 10:39:01 434.975-435.025
COMPASS 1 31 Mar 10:36:15 10:40:30 71° 284° (WNW) 10:44:43 437.405
UNISAT 6 31 Mar 10:38:33 10:42:23 34° 72° (ENE) 10:46:20 437.425
GOMX 1 31 Mar 10:45:16 10:49:09 33° 287° (WNW) 10:53:12 467.674
TIGRISAT 31 Mar 10:47:36 10:51:36 42° 73° (ENE) 10:55:42 435.000
Oscar 11 31 Mar 10:48:24 10:52:44 60° 100° (E) 10:57:03 145.826/435.025
QB50P1 31 Mar 10:51:42 10:55:04 24° 70° (ENE) 10:58:32 145.935-145.965
DUCHIFAT 1 31 Mar 10:52:19 10:55:40 24° 70° (ENE) 10:59:06 145.980
FUNcube-1 31 Mar 11:03:07 11:07:21 44° 98° (E) 11:11:41 145.935
PHONESAT 2.4 31 Mar 11:06:13 11:09:37 46° 205° (SSW) 11:13:01 2401.200-2431.200
QB50P2 31 Mar 11:06:45 11:10:36 37° 73° (ENE) 11:14:31 145.880/145.840
DELFI C3 31 Mar 11:09:13 11:13:20 83° 101° (E) 11:17:26 145.870
AIST 2 31 Mar 11:11:25 11:15:39 78° 119° (ESE) 11:19:57 435.215
UWE-3 31 Mar 11:12:53 11:17:21 75° 101° (ESE) 11:21:54 435.000/436.395/437.385
CANX-2 31 Mar 11:14:13 11:17:07 17° 292° (WNW) 11:19:53 2200.000
ZACube-1 31 Mar 11:16:43 11:21:08 66° 101° (E) 11:25:37 437.345
ANTELSAT 31 Mar 11:18:45 11:23:01 79° 259° (W) 11:27:21 437.575/2403.000
VELOX 1 31 Mar 11:22:01 11:25:20 21° 94° (E) 11:28:46 145.980
CUBEBUG 2 31 Mar 11:22:26 11:26:54 71° 284° (WNW) 11:31:28 437.445
BUGSAT 1 31 Mar 11:22:45 11:26:35 38° 73° (ENE) 11:30:26 437.445
CINEMA 3 31 Mar 11:25:04 11:29:10 35° 287° (WNW) 11:33:22 145.822/145.860
BEESAT 2 31 Mar 11:26:00 11:29:31 26° 310° (NW) 11:33:00 435.950
AISAT 31 Mar 11:27:25 11:31:02 25° 95° (E) 11:34:45 437.250
CUTE 1.7 + AOD 2 31 Mar 11:28:25 11:30:40 14° 293° (WNW) 11:32:43 437.475
POPSAT HIP 1 31 Mar 11:34:38 11:38:51 79° 78° (ENE) 11:43:04 437.405
NANOSAT C BR1 31 Mar 11:44:19 11:48:32 80° 257° (WSW) 11:52:46 145.865
AAUSAT CUBESAT 2 31 Mar 11:44:27 11:46:52 15° 292° (WNW) 11:49:07 437.432
HO-68 31 Mar 11:48:41 11:54:16 24° 298° (WNW) 11:59:37 435.675
POLYITAN 1 31 Mar 11:50:37 11:54:48 65° 259° (W) 11:58:59 437.675
HUMSAT D 31 Mar 11:50:38 11:54:56 79° 102° (ESE) 11:59:15 437.325/437.525
UKube-1 31 Mar 11:55:40 11:59:59 66° 285° (WNW) 12:04:15 .
BEESAT 3 31 Mar 12:03:09 12:04:32 11° 318° (NW) 12:05:46 437.485
ESTCUBE 1 31 Mar 12:03:58 12:08:00 32° 96° (E) 12:12:04 437.505/2401.250
DX 1 31 Mar 12:08:58 12:13:06 44° 287° (WNW) 12:17:12 434.975-435.025
50 SAT 31 Mar 12:11:58 12:16:02 88° 285° (WNW) 12:20:06 437.505
UNISAT 6 31 Mar 12:16:23 12:19:21 18° 268° (W) 12:22:12 437.425
TIGRISAT 31 Mar 12:26:15 12:28:40 14° 269° (W) 12:30:52 435.000
Oscar 11 31 Mar 12:26:48 12:28:28 12° 294° (WNW) 12:29:53 145.826/435.025
QB50P1 31 Mar 12:27:24 12:30:54 24° 265° (W) 12:34:20 145.935-145.965
DUCHIFAT 1 31 Mar 12:27:56 12:31:27 25° 265° (W) 12:34:53 145.980
TISAT 1 31 Mar 12:35:12 12:36:46 12° 90° (E) 12:38:35 437.305
FUNcube-1 31 Mar 12:40:38 12:43:24 16° 292° (WNW) 12:46:01 145.935
QB50P2 31 Mar 12:43:58 12:46:42 16° 268° (W) 12:49:16 145.880/145.840
CUBEBUG 1 31 Mar 12:51:11 12:55:31 80° 284° (WNW) 12:59:49 437.445
SPROUT 31 Mar 12:52:08 12:55:37 24° 95° (E) 12:59:11 437.525
AIST 2 31 Mar 12:52:56 12:54:51 12° 318° (NW) 12:56:36 435.215
UWE-3 31 Mar 12:53:05 12:53:25 10° 294° (WNW) 12:53:26 435.000/436.395/437.385
ZACube-1 31 Mar 12:55:36 12:57:03 11° 294° (WNW) 12:58:16 437.345
VELOX 1 31 Mar 12:58:05 13:01:58 30° 289° (WNW) 13:05:48 145.980
BUGSAT 1 31 Mar 12:59:49 13:02:17 15° 268° (W) 13:04:34 437.445
AISAT 31 Mar 13:03:55 13:07:36 26° 290° (WNW) 13:11:13 437.250
ITAMSAT 1 31 Mar 13:27:17 13:29:14 12° 63° (ENE) 13:31:27 435.822/435.867
YUBILEINY 31 Mar 13:28:10 13:35:59 39° 88° (E) 13:44:01 435.215
PCSat 31 Mar 13:37:56 13:40:51 15° 105° (ESE) 13:44:03 145.827
ESTCUBE 1 31 Mar 13:41:15 13:44:43 21° 291° (WNW) 13:48:03 437.505/2401.250
O/OREOS (USA 219) 31 Mar 13:45:28 13:49:33 32° 62° (ENE) 13:53:37 437.305
Oscar 19 31 Mar 13:52:29 13:57:33 69° 74° (ENE) 14:02:39 437.125/150
TISAT 1 31 Mar 14:08:51 14:12:55 48° 286° (WNW) 14:16:57 437.305
SWISSCUBE 31 Mar 14:21:29 14:25:46 33° 96° (E) 14:30:05 437.505
BEESAT 31 Mar 14:24:02 14:28:19 32° 97° (E) 14:32:36 436.000
Gurwin Techsat 1B 31 Mar 14:26:21 14:31:08 37° 70° (ENE) 14:36:01 435.225
SPROUT 31 Mar 14:28:07 14:31:41 25° 289° (WNW) 14:35:09 437.525
JUGNU 31 Mar 14:39:17 14:41:54 13° 176° (S) 14:44:34 437.505
JAS-2 31 Mar 14:55:48 14:58:48 13° 56° (NE) 15:02:22 435.910
ITAMSAT 1 31 Mar 15:02:55 15:08:08 79° 256° (WSW) 15:13:24 435.822/435.867
AIST 1 31 Mar 15:03:17 15:06:39 22° 74° (ENE) 15:10:04
HORYU 2 31 Mar 15:06:26 15:09:20 18° 67° (ENE) 15:12:25 437.375
ITUPSAT 1 31 Mar 15:12:03 15:16:52 79° 284° (WNW) 15:21:38 437.325
PCSat 31 Mar 15:18:25 15:23:47 64° 300° (WNW) 15:29:12 145.827
YUBILEINY 31 Mar 15:24:29 15:32:46 43° 286° (WNW) 15:41:01 435.215
O/OREOS (USA 219) 31 Mar 15:25:19 15:28:48 21° 258° (WSW) 15:32:08 437.305
KKS-1 31 Mar 15:31:49 15:35:42 30° 96° (E) 15:39:39 437.445
Oscar 19 31 Mar 15:35:20 15:37:30 12° 271° (W) 15:39:20 437.125/150
AO-7 31 Mar 15:36:02 15:43:32 41° 64° (ENE) 15:51:09 29.400- 29.500
SRMSAT 31 Mar 15:43:29 15:45:35 12° 173° (S) 15:47:44 437.500
STARS 31 Mar 15:58:06 16:02:11 37° 98° (E) 16:06:17 437.465
SWISSCUBE 31 Mar 15:59:39 16:03:30 24° 292° (WNW) 16:07:12 437.505
BEESAT 31 Mar 16:02:09 16:06:01 24° 292° (WNW) 16:09:47 436.000
Gurwin Techsat 1B 31 Mar 16:06:50 16:11:14 25° 266° (W) 16:15:31 435.225
JUGNU 31 Mar 16:27:37 16:30:07 13° 186° (S) 16:32:33 437.505
JAS-2 31 Mar 16:35:39 16:42:32 71° 74° (ENE) 16:50:11 435.910
AIST 1 31 Mar 16:40:44 16:44:17 25° 270° (W) 16:47:43
HORYU 2 31 Mar 16:41:35 16:45:45 38° 262° (W) 16:49:54 437.375
PCSat 31 Mar 17:07:21 17:08:25 10° 321° (NW) 17:09:12 145.827
KKS-1 31 Mar 17:08:42 17:12:14 23° 291° (WNW) 17:15:39 437.445
MOZHAYETS 4 31 Mar 17:23:57 17:27:57 29° 95° (E) 17:31:59
AO-7 31 Mar 17:28:28 17:36:18 43° 261° (W) 17:44:03 29.400- 29.500
SRMSAT 31 Mar 17:31:11 17:33:56 13° 183° (S) 17:36:41 437.500
STARS 31 Mar 17:35:19 17:38:25 18° 292° (WNW) 17:41:23 437.465
M-CUBED/EXP-1 PRIME 31 Mar 17:42:22 17:44:30 13° 93° (E) 17:46:51 437.505
CUTE-I 31 Mar 17:43:30 17:47:13 20° 66° (ENE) 17:51:07 437.470
Cubesat XI-IV 31 Mar 17:44:20 17:48:08 21° 66° (ENE) 17:52:07 437.490
SO-50 31 Mar 18:05:26 18:09:03 24° 112° (ESE) 18:12:52 436.795
BEESAT 2 31 Mar 18:10:18 18:11:54 12° 43° (NE) 18:13:38 435.950
JAS-2 31 Mar 18:23:21 18:28:26 20° 274° (W) 18:33:32 435.910
RS-15 31 Mar 18:37:57 18:48:00 47° 110° (ESE) 18:58:18 29.354- 29.394
BEESAT 3 31 Mar 18:42:59 18:46:31 27° 51° (NE) 18:50:02 437.485
AUBIESAT-1 31 Mar 18:48:23 18:53:10 61° 105° (ESE) 18:57:46 437.475
MOZHAYETS 4 31 Mar 19:01:14 19:05:06 25° 290° (WNW) 19:08:50
PRISM 31 Mar 19:04:07 19:06:45 17° 92° (E) 19:09:32 437.425
M-CUBED/EXP-1 PRIME 31 Mar 19:15:02 19:19:52 63° 290° (WNW) 19:24:30 437.505
CUBESAT XI-V 31 Mar 19:17:50 19:22:04 35° 97° (E) 19:26:17 437.345
CUTE-I 31 Mar 19:21:46 19:26:58 49° 260° (W) 19:32:10 437.470
Cubesat XI-IV 31 Mar 19:22:45 19:27:56 48° 261° (W) 19:33:07 437.490
STRAND 1 31 Mar 19:28:04 19:32:04 24° 94° (E) 19:36:11 437.568
AIST 2 31 Mar 19:35:24 19:39:06 29° 51° (NE) 19:42:48 435.215
GONETS M04 31 Mar 19:41:36 19:50:04 62° 92° (E) 19:58:40
BRITE-PL 31 Mar 19:42:40 19:44:25 12° 68° (ENE) 19:46:22 437.365/2234.400
SO-50 31 Mar 19:45:08 19:49:25 36° 308° (NW) 19:53:49 436.795
BEESAT 2 31 Mar 19:46:28 19:50:36 73° 242° (WSW) 19:54:39 435.950
GOMX 1 31 Mar 20:15:13 20:18:01 17° 70° (ENE) 20:20:54 467.674
BEESAT 3 31 Mar 20:21:07 20:24:30 24° 247° (WSW) 20:27:45 437.485
AUBIESAT-1 31 Mar 20:24:37 20:27:29 15° 300° (WNW) 20:30:08 437.475
HO-68 31 Mar 20:26:30 20:32:58 39° 66° (ENE) 20:39:33 435.675
CANX-2 31 Mar 20:29:13 20:32:26 22° 70° (ENE) 20:35:46 2200.000
PRISM 31 Mar 20:38:36 20:42:24 34° 288° (WNW) 20:46:07 437.425
CUTE 1.7 + AOD 2 31 Mar 20:42:21 20:45:56 28° 71° (ENE) 20:49:36 437.475
RS-15 31 Mar 20:49:52 21:00:22 49° 312° (NW) 21:11:00 29.354- 29.394
CINEMA 3 31 Mar 20:50:26 20:52:20 13° 67° (ENE) 20:54:27 145.822/145.860
CUBESAT XI-V 31 Mar 20:55:49 20:59:19 21° 291° (WNW) 21:02:40 437.345
AAUSAT CUBESAT 2 31 Mar 20:57:08 21:00:26 24° 70° (ENE) 21:03:50 437.432
STRAND 1 31 Mar 21:06:43 21:11:24 36° 290° (WNW) 21:16:00 437.568
SEEDS 31 Mar 21:07:14 21:11:13 44° 74° (ENE) 21:15:17 437.485
AIST 2 31 Mar 21:14:08 21:17:37 24° 248° (WSW) 21:20:58 435.215
DANDE 31 Mar 21:16:30 21:19:23 40° 98° (E) 21:21:55 436.750
BRITE-PL 31 Mar 21:18:01 21:22:40 57° 260° (W) 21:26:59 437.365/2234.400
COMPASS 1 31 Mar 21:25:31 21:29:38 60° 75° (ENE) 21:33:48 437.405
DOVE 4 31 Mar 21:27:42 21:32:01 76° 77° (ENE) 21:36:12 437.250
DX 1 31 Mar 21:29:53 21:30:52 11° 65° (ENE) 21:32:07 434.975-435.025
GONETS M04 31 Mar 21:40:26 21:47:37 27° 292° (WNW) 21:54:33
Oscar 11 31 Mar 21:41:27 21:45:22 36° 72° (ENE) 21:49:22 145.826/435.025
GOMX 1 31 Mar 21:51:51 21:56:00 36° 262° (W) 21:59:57 467.674
CUSAT 1 31 Mar 21:54:06 21:56:25 23° 283° (WNW) 21:58:36 437.405
DELFI C3 31 Mar 21:55:10 21:58:55 38° 73° (ENE) 22:02:45 145.870
FUNcube-1 31 Mar 21:57:50 22:01:16 26° 71° (ENE) 22:04:47 145.935
CANX-2 31 Mar 22:04:35 22:08:15 28° 265° (W) 22:11:55 2200.000
UWE-3 31 Mar 22:08:36 22:12:32 45° 74° (ENE) 22:16:32 435.000/436.395/437.385
ZACube-1 31 Mar 22:11:19 22:15:08 38° 73° (ENE) 22:19:02 437.345
HO-68 31 Mar 22:14:08 22:20:43 37° 263° (W) 22:27:14 435.675
CUTE 1.7 + AOD 2 31 Mar 22:18:32 22:21:52 22° 267° (W) 22:25:08 437.475
VELOX 1 31 Mar 22:18:45 22:21:26 16° 67° (ENE) 22:24:18 145.980
CUBEBUG 2 31 Mar 22:19:04 22:23:12 76° 77° (ENE) 22:27:22 437.445
AISAT 31 Mar 22:24:11 22:27:17 19° 68° (ENE) 22:30:30 437.250
CINEMA 3 31 Mar 22:25:13 22:29:15 45° 262° (W) 22:33:14 145.822/145.860
ISS 31 Mar 22:25:52 22:29:08 86° 319° (NW) 22:32:24 145.825
PCSat 31 Mar 22:27:48 22:29:01 11° 40° (NE) 22:30:31 145.827
AAUSAT CUBESAT 2 31 Mar 22:32:31 22:36:01 25° 266° (W) 22:39:27 437.432
HUMSAT D 31 Mar 22:40:54 22:44:44 41° 73° (ENE) 22:48:38 437.325/437.525
TIGRISAT 31 Mar 22:43:23 22:44:33 11° 89° (E) 22:46:03 435.000
SEEDS 31 Mar 22:45:10 22:47:20 13° 270° (W) 22:49:18 437.485
UKube-1 31 Mar 22:48:26 22:52:46 81° 78° (ENE) 22:57:09 .
50 SAT 31 Mar 22:56:15 22:59:53 39° 73° (ENE) 23:03:35 437.505
ESTCUBE 1 31 Mar 23:02:08 23:05:48 25° 70° (ENE) 23:09:33 437.505/2401.250
DX 1 31 Mar 23:02:19 23:06:39 66° 259° (WSW) 23:10:59 434.975-435.025
RS-15 31 Mar 23:09:27 23:16:34 18° 343° (NNW) 23:23:34 29.354- 29.394
ANTELSAT 31 Mar 23:12:54 23:16:43 26° 95° (E) 23:20:40 437.575/2403.000
Oscar 11 31 Mar 23:18:46 23:21:44 17° 268° (W) 23:24:32 145.826/435.025
POPSAT HIP 1 31 Mar 23:23:18 23:25:35 15° 91° (E) 23:28:05 437.405
DELFI C3 31 Mar 23:31:57 23:34:19 15° 269° (W) 23:36:31 145.870
NANOSAT C BR1 31 Mar 23:32:13 23:35:09 19° 93° (E) 23:38:13 145.865
FUNcube-1 31 Mar 23:34:22 23:37:37 21° 266° (W) 23:40:48 145.935
POLYITAN 1 31 Mar 23:38:39 23:42:00 23° 94° (E) 23:45:26 437.675
YUBILEINY 31 Mar 23:41:51 23:46:47 17° 61° (ENE) 23:52:14 435.215
CUBEBUG 1 31 Mar 23:45:13 23:49:35 66° 75° (ENE) 23:53:57 437.445
SPROUT 31 Mar 23:45:34 23:48:06 16° 68° (ENE) 23:50:49 437.525
UWE-3 31 Mar 23:47:33 23:49:26 12° 270° (W) 23:51:06 435.000/436.395/437.385
ZACube-1 31 Mar 23:49:20 23:51:46 15° 269° (W) 23:54:01 437.345
VELOX 1 31 Mar 23:53:29 23:57:43 42° 261° (W) 00:01:57 145.980
AISAT 31 Mar 23:59:35 00:03:41 35° 263° (W) 00:07:44 437.250
ISS 01 Apr 00:04:03 00:05:58 14° 338° (NNW) 00:07:49 145.825
PCSat 01 Apr 00:08:11 00:13:36 67° 60° (ENE) 00:18:59 145.827
UNISAT 6 01 Apr 00:08:14 00:12:52 79° 284° (WNW) 00:17:33 437.425
QB50P1 01 Apr 00:13:35 00:17:46 59° 100° (E) 00:21:58 145.935-145.965
DUCHIFAT 1 01 Apr 00:13:49 00:17:59 58° 101° (E) 00:22:09 145.980
TIGRISAT 01 Apr 00:17:13 00:21:47 65° 285° (WNW) 00:26:25 435.000
HUMSAT D 01 Apr 00:18:38 00:20:47 13° 269° (W) 00:22:45 437.325/437.525
QB50P2 01 Apr 00:29:22 00:33:38 87° 285° (WNW) 00:37:53 145.880/145.840
50 SAT 01 Apr 00:33:09 00:35:03 13° 269° (W) 00:36:46 437.505
ESTCUBE 1 01 Apr 00:38:39 00:42:36 28° 264° (W) 00:46:30 437.505/2401.250
BUGSAT 1 01 Apr 00:41:58 00:46:01 90° 293° (WNW) 00:50:03 437.445
ANTELSAT 01 Apr 00:49:30 00:53:30 29° 289° (WNW) 00:57:28 437.575/2403.000
POPSAT HIP 1 01 Apr 00:57:44 01:01:43 41° 287° (WNW) 01:05:42 437.405
TISAT 1 01 Apr 00:58:53 01:03:06 86° 257° (WSW) 01:07:20 437.305
NANOSAT C BR1 01 Apr 01:07:19 01:11:07 32° 288° (WNW) 01:14:51 145.865
POLYITAN 1 01 Apr 01:14:19 01:17:54 26° 289° (WNW) 01:21:27 437.675
SPROUT 01 Apr 01:19:52 01:23:55 40° 262° (W) 01:27:58 437.525
SWISSCUBE 01 Apr 01:26:21 01:30:32 31° 70° (ENE) 01:34:48 437.505
RS-15 01 Apr 01:27:55 01:35:07 19° 19° (NNE) 01:42:48 29.354- 29.394
BEESAT 01 Apr 01:28:51 01:32:59 31° 70° (ENE) 01:37:13 436.000
YUBILEINY 01 Apr 01:36:17 01:45:09 88° 82° (E) 01:53:56 435.215
QB50P1 01 Apr 01:51:49 01:53:13 11° 294° (WNW) 01:54:23 145.935-145.965
DUCHIFAT 1 01 Apr 01:51:56 01:53:24 11° 294° (WNW) 01:54:37 145.980
PCSat 01 Apr 01:53:31 01:56:30 14° 255° (WSW) 01:59:13 145.827
Oscar 19 01 Apr 02:06:25 02:10:48 28° 95° (E) 02:15:16 437.125/150
ITUPSAT 1 01 Apr 02:16:48 02:21:37 86° 259° (W) 02:26:29 437.325
KKS-1 01 Apr 02:28:42 02:32:06 22° 69° (ENE) 02:35:36 437.445
SO-50 01 Apr 02:38:34 02:41:46 17° 43° (NE) 02:45:07 436.795
Gurwin Techsat 1B 01 Apr 02:45:27 02:48:41 17° 91° (E) 02:52:09 435.225
STARS 01 Apr 02:53:40 02:57:16 26° 70° (ENE) 03:00:57 437.465
SWISSCUBE 01 Apr 03:04:28 03:08:26 25° 266° (W) 03:12:19 437.505
BEESAT 01 Apr 03:06:52 03:10:51 25° 265° (W) 03:14:47 436.000
ITAMSAT 1 01 Apr 03:17:56 03:22:50 43° 98° (E) 03:27:45 435.822/435.867
ISS 01 Apr 03:20:10 03:21:12 11° 18° (NNE) 03:22:17 145.825
AIST 1 01 Apr 03:31:50 03:34:18 15° 88° (E) 03:36:58
YUBILEINY 01 Apr 03:35:41 03:40:57 17° 280° (W) 03:45:37 435.215
RS-15 01 Apr 03:40:18 03:51:20 50° 49° (NE) 04:02:56 29.354- 29.394
AO-7 01 Apr 03:43:06 03:45:19 12° 86° (E) 03:48:21 29.400- 29.500
Oscar 19 01 Apr 03:45:35 03:50:10 32° 290° (WNW) 03:54:40 437.125/150
JAS-2 01 Apr 03:51:49 03:53:51 12° 81° (E) 03:56:28 435.910
O/OREOS (USA 219) 01 Apr 03:55:18 03:59:46 54° 107° (ESE) 04:04:16 437.305
KKS-1 01 Apr 04:04:42 04:08:37 30° 264° (W) 04:12:30 437.445
SO-50 01 Apr 04:17:56 04:22:52 68° 242° (WSW) 04:27:44 436.795
Gurwin Techsat 1B 01 Apr 04:23:53 04:29:05 54° 287° (WNW) 04:34:14 435.225
MOZHAYETS 4 01 Apr 04:24:30 04:28:01 23° 69° (ENE) 04:31:41
VERMONT LUNAR 01 Apr 04:26:33 04:29:38 35° 153° (SSE) 04:32:44 437.305
M-CUBED/EXP-1 PRIME 01 Apr 04:29:54 04:31:31 12° 59° (ENE) 04:33:23 437.505
STARS 01 Apr 04:30:04 04:33:42 25° 265° (W) 04:37:15 437.465
HORYU 2 01 Apr 04:34:31 04:38:50 45° 99° (E) 04:43:10 437.375
ISS 01 Apr 04:55:05 04:58:14 50° 36° (NE) 05:01:23 145.825
ITAMSAT 1 01 Apr 04:58:10 05:02:06 22° 293° (WNW) 05:05:52 435.822/435.867
AIST 1 01 Apr 05:07:32 05:11:40 39° 282° (WNW) 05:15:47
AO-7 01 Apr 05:31:22 05:39:40 75° 105° (ESE) 05:47:59 29.400- 29.500
PHONESAT 2.4 01 Apr 05:31:47 05:35:10 45° 155° (SSE) 05:38:33 2401.200-2431.200
JAS-2 01 Apr 05:32:45 05:40:27 77° 101° (E) 05:47:22 435.910
AUBIESAT-1 01 Apr 05:34:42 05:38:41 54° 69° (ENE) 05:43:02 437.475
O/OREOS (USA 219) 01 Apr 05:36:52 05:39:36 15° 305° (NW) 05:42:09 437.305
RS-15 01 Apr 05:52:54 06:03:53 49° 249° (WSW) 06:15:07 29.354- 29.394
PRISM 01 Apr 05:54:35 05:55:33 11° 65° (ENE) 05:56:45 437.425
GONETS M04 01 Apr 05:54:47 06:01:55 28° 68° (ENE) 06:09:18
MOZHAYETS 4 01 Apr 06:00:55 06:05:06 32° 264° (W) 06:09:15
M-CUBED/EXP-1 PRIME 01 Apr 06:01:50 06:05:49 62° 255° (WSW) 06:10:12 437.505
VERMONT LUNAR 01 Apr 06:03:54 06:07:13 65° 348° (NNW) 06:10:33 437.305
HORYU 2 01 Apr 06:12:18 06:15:11 16° 293° (WNW) 06:17:53 437.375
CUBESAT XI-V 01 Apr 06:19:33 06:23:32 29° 71° (ENE) 06:27:36 437.345
ISS 01 Apr 06:32:35 06:34:22 14° 230° (SW) 06:36:03 145.825
STRAND 1 01 Apr 06:42:05 06:46:25 29° 69° (ENE) 06:50:51 437.568
CUSAT 1 01 Apr 06:49:29 06:50:47 11° 72° (ENE) 06:52:34 437.405
PHONESAT 2.4 01 Apr 07:09:59 07:13:28 60° 350° (N) 07:16:59 2401.200-2431.200
AUBIESAT-1 01 Apr 07:12:28 07:14:03 12° 268° (W) 07:15:24 437.475
JAS-2 01 Apr 07:19:10 07:24:38 21° 300° (WNW) 07:29:33 435.910
AO-7 01 Apr 07:25:27 07:31:48 24° 302° (WNW) 07:37:53 29.400- 29.500
PRISM 01 Apr 07:26:24 07:30:34 62° 259° (W) 07:34:46 437.425
CUTE-I 01 Apr 07:40:38 07:45:59 78° 102° (ESE) 07:51:18 437.470
Cubesat XI-IV 01 Apr 07:41:47 07:47:07 81° 101° (ESE) 07:52:27 437.490
VERMONT LUNAR 01 Apr 07:41:52 07:45:08 50° 5° (N) 07:48:25 437.305
GONETS M04 01 Apr 07:50:44 07:59:24 61° 268° (W) 08:08:01
DANDE 01 Apr 07:55:16 07:59:24 37° 79° (E) 08:04:52 436.750
CUBESAT XI-V 01 Apr 07:56:59 08:00:57 26° 266° (W) 08:04:51 437.345
STRAND 1 01 Apr 08:21:02 08:25:34 30° 264° (W) 08:30:04 437.568
CUSAT 1 01 Apr 08:28:55 08:33:41 77° 262° (W) 08:40:05 437.405
PHONESAT 2.4 01 Apr 08:48:35 08:52:03 56° 7° (N) 08:55:32 2401.200-2431.200
